Time,TemperatureF,DewpointF,PressureIn,WindDirection,WindDirectionDegrees,WindSpeedMPH,WindSpeedGustMPH,Humidity,HourlyPrecipIn,Conditions,Clouds,dailyrainin,SoftwareType,DateUTC
2013-11-02 00:22:00,38.0,37.0,-100.00,North,350,0.0,0.0,96,-99.99,,,-99.99,,2013-11-02 05:22:00,
2013-11-02 00:34:00,38.0,37.0,-100.00,North,350,0.0,0.0,96,-99.99,,,-99.99,,2013-11-02 05:34:00,
2013-11-02 00:42:00,38.0,37.0,-100.00,North,350,0.0,0.0,96,-99.99,,,-99.99,,2013-11-02 05:42:00,
2013-11-02 00:52:00,38.0,37.0,-100.00,North,350,0.0,0.0,96,-99.99,,,-99.99,,2013-11-02 05:52:00,
2013-11-02 01:22:00,38.0,37.0,-100.00,NNW,330,0.0,0.0,96,-99.99,,,-99.99,,2013-11-02 06:22:00,
2013-11-02 01:32:00,38.0,37.0,-100.00,NNW,330,0.0,0.0,96,-99.99,,,-99.99,,2013-11-02 06:32:00,
2013-11-02 01:43:00,38.0,37.0,-100.00,NNW,330,0.0,0.0,96,-99.99,,,-99.99,,2013-11-02 06:43:00,
2013-11-02 01:52:00,38.0,37.0,-100.00,NNW,330,0.0,0.0,96,-99.99,,,-99.99,,2013-11-02 06:52:00,
2013-11-02 02:22:00,38.0,36.0,-100.00,NNW,330,0.0,0.0,94,-99.99,,,-99.99,,2013-11-02 07:22:00,
2013-11-02 02:32:00,38.0,36.0,-100.00,NNW,330,0.0,0.0,94,-99.99,,,-99.99,,2013-11-02 07:32:00,
2013-11-02 02:42:00,38.0,36.0,-100.00,NNW,330,0.0,0.0,94,-99.99,,,-99.99,,2013-11-02 07:42:00,
2013-11-02 02:52:00,38.0,36.0,-100.00,NNW,330,0.0,0.0,94,-99.99,,,-99.99,,2013-11-02 07:52:00,
2013-11-02 03:22:00,37.0,35.0,-100.00,NW,320,0.0,0.0,92,-99.99,,,-99.99,,2013-11-02 08:22:00,
2013-11-02 03:32:00,37.0,35.0,-100.00,NW,320,0.0,0.0,92,-99.99,,,-99.99,,2013-11-02 08:32:00,
2013-11-02 03:42:00,37.0,35.0,-100.00,NW,320,0.0,0.0,92,-99.99,,,-99.99,,2013-11-02 08:42:00,
2013-11-02 03:52:00,37.0,35.0,-100.00,NW,320,0.0,0.0,92,-99.99,,,-99.99,,2013-11-02 08:52:00,
2013-11-02 03:53:00,36.0,34.0,-100.00,NW,315,0.0,0.0,92,-99.99,,,-99.99,,2013-11-02 08:53:00,
2013-11-02 04:21:00,36.0,34.0,-100.00,NW,315,0.0,0.0,92,-99.99,,,-99.99,,2013-11-02 09:21:00,
2013-11-02 04:33:00,36.0,34.0,-100.00,NW,315,0.0,0.0,92,-99.99,,,-99.99,,2013-11-02 09:33:00,
2013-11-02 04:43:00,36.0,34.0,-100.00,NW,315,0.0,0.0,92,-99.99,,,-99.99,,2013-11-02 09:43:00,
2013-11-02 04:52:00,34.0,33.0,-100.00,NW,310,0.0,0.0,94,-99.99,,,-99.99,,2013-11-02 09:52:00,
2013-11-02 05:23:00,34.0,33.0,-100.00,NW,310,0.0,0.0,94,-99.99,,,-99.99,,2013-11-02 10:23:00,
2013-11-02 05:33:00,34.0,33.0,-100.00,NW,310,0.0,0.0,94,-99.99,,,-99.99,,2013-11-02 10:33:00,
2013-11-02 05:42:00,34.0,33.0,-100.00,NW,310,0.0,0.0,94,-99.99,,,-99.99,,2013-11-02 10:42:00,
2013-11-02 06:22:00,33.0,31.0,-100.00,NW,310,0.0,0.0,96,-99.99,,,-99.99,,2013-11-02 11:22:00,
2013-11-02 06:33:00,33.0,31.0,-100.00,NW,310,0.0,0.0,96,-99.99,,,-99.99,,2013-11-02 11:33:00,
2013-11-02 06:42:00,33.0,31.0,-100.00,NW,310,0.0,0.0,96,-99.99,,,-99.99,,2013-11-02 11:42:00,
2013-11-02 06:52:00,33.0,31.0,-100.00,NW,310,0.0,0.0,96,-99.99,,,-99.99,,2013-11-02 11:52:00,
2013-11-02 07:21:00,33.0,32.0,-100.00,NW,325,0.0,0.0,96,-99.99,,,-99.99,,2013-11-02 12:21:00,
2013-11-02 07:32:00,33.0,32.0,-100.00,NW,325,0.0,0.0,96,-99.99,,,-99.99,,2013-11-02 12:32:00,
2013-11-02 07:42:00,33.0,32.0,-100.00,NW,325,0.0,0.0,96,-99.99,,,-99.99,,2013-11-02 12:42:00,
2013-11-02 07:52:00,34.0,33.0,-100.00,NW,305,0.0,0.0,96,-99.99,,,-99.99,,2013-11-02 12:52:00,
2013-11-02 08:22:00,34.0,33.0,-100.00,NW,305,0.0,0.0,96,-99.99,,,-99.99,,2013-11-02 13:22:00,
2013-11-02 08:32:00,34.0,33.0,-100.00,NW,305,0.0,0.0,96,-99.99,,,-99.99,,2013-11-02 13:32:00,
2013-11-02 08:42:00,34.0,33.0,-100.00,NW,305,0.0,0.0,96,-99.99,,,-99.99,,2013-11-02 13:42:00,
2013-11-02 08:52:00,35.0,34.0,-100.00,NNW,335,0.0,0.0,96,-99.99,,,-99.99,,2013-11-02 13:52:00,
2013-11-02 09:21:00,35.0,34.0,-100.00,NNW,335,0.0,0.0,96,-99.99,,,-99.99,,2013-11-02 14:21:00,
2013-11-02 09:32:00,35.0,34.0,-100.00,NNW,335,0.0,0.0,96,-99.99,,,-99.99,,2013-11-02 14:32:00,
2013-11-02 09:42:00,35.0,34.0,-100.00,NNW,335,0.0,0.0,96,-99.99,,,-99.99,,2013-11-02 14:42:00,
2013-11-02 09:53:00,36.0,35.0,-100.00,NW,325,0.0,0.0,96,-99.99,,,-99.99,,2013-11-02 14:53:00,
2013-11-02 10:22:00,36.0,35.0,-100.00,NW,325,0.0,0.0,96,-99.99,,,-99.99,,2013-11-02 15:22:00,
2013-11-02 10:33:00,36.0,35.0,-100.00,NW,325,0.0,0.0,96,-99.99,,,-99.99,,2013-11-02 15:33:00,
2013-11-02 10:43:00,36.0,35.0,-100.00,NW,325,0.0,0.0,96,-99.99,,,-99.99,,2013-11-02 15:43:00,
2013-11-02 10:53:00,37.0,36.0,-100.00,NNW,345,0.0,0.0,95,-99.99,,,-99.99,,2013-11-02 15:53:00,
2013-11-02 11:23:00,37.0,36.0,-100.00,NNW,345,0.0,0.0,95,-99.99,,,-99.99,,2013-11-02 16:23:00,
2013-11-02 11:33:00,37.0,36.0,-100.00,NNW,345,0.0,0.0,95,-99.99,,,-99.99,,2013-11-02 16:33:00,
2013-11-02 11:42:00,37.0,36.0,-100.00,NNW,345,0.0,0.0,95,-99.99,,,-99.99,,2013-11-02 16:42:00,
2013-11-02 11:52:00,38.0,35.0,-100.00,NW,325,0.0,0.0,88,-99.99,,,-99.99,,2013-11-02 16:52:00,
2013-11-02 12:22:00,38.0,35.0,-100.00,NW,325,0.0,0.0,88,-99.99,,,-99.99,,2013-11-02 17:22:00,
2013-11-02 12:34:00,38.0,35.0,-100.00,NW,325,0.0,0.0,88,-99.99,,,-99.99,,2013-11-02 17:34:00,
2013-11-02 12:43:00,38.0,35.0,-100.00,NW,325,0.0,0.0,88,-99.99,,,-99.99,,2013-11-02 17:43:00,
2013-11-02 13:22:00,40.0,34.0,-100.00,NNW,335,0.0,0.0,80,-99.99,,,-99.99,,2013-11-02 18:22:00,
2013-11-02 13:32:00,40.0,34.0,-100.00,NNW,335,0.0,0.0,80,-99.99,,,-99.99,,2013-11-02 18:32:00,
2013-11-02 13:42:00,40.0,34.0,-100.00,NNW,335,0.0,0.0,80,-99.99,,,-99.99,,2013-11-02 18:42:00,
2013-11-02 13:52:00,40.0,34.0,-100.00,NNW,335,0.0,0.0,80,-99.99,,,-99.99,,2013-11-02 18:52:00,
2013-11-02 14:22:00,38.0,36.0,-100.00,NNW,340,0.0,0.0,91,-99.99,,,-99.99,,2013-11-02 19:22:00,
2013-11-02 14:32:00,38.0,36.0,-100.00,NNW,340,0.0,0.0,91,-99.99,,,-99.99,,2013-11-02 19:32:00,
2013-11-02 14:42:00,38.0,36.0,-100.00,NNW,340,0.0,0.0,91,-99.99,,,-99.99,,2013-11-02 19:42:00,
2013-11-02 14:52:00,40.0,36.0,-100.00,NNW,335,0.0,0.0,83,-99.99,,,-99.99,,2013-11-02 19:52:00,
2013-11-02 15:22:00,40.0,36.0,-100.00,NNW,335,0.0,0.0,83,-99.99,,,-99.99,,2013-11-02 20:22:00,
2013-11-02 15:32:00,40.0,36.0,-100.00,NNW,335,0.0,0.0,83,-99.99,,,-99.99,,2013-11-02 20:32:00,
2013-11-02 15:43:00,40.0,36.0,-100.00,NNW,335,0.0,0.0,83,-99.99,,,-99.99,,2013-11-02 20:43:00,
2013-11-02 15:53:00,41.0,35.0,-100.00,NNE,15,0.0,0.0,79,-99.99,,,-99.99,,2013-11-02 20:53:00,
2013-11-02 16:22:00,41.0,35.0,-100.00,NNE,15,0.0,0.0,79,-99.99,,,-99.99,,2013-11-02 21:22:00,
2013-11-02 16:33:00,41.0,35.0,-100.00,NNE,15,0.0,0.0,79,-99.99,,,-99.99,,2013-11-02 21:33:00,
2013-11-02 16:44:00,41.0,35.0,-100.00,NNE,15,0.0,0.0,79,-99.99,,,-99.99,,2013-11-02 21:44:00,
2013-11-02 16:52:00,40.0,34.0,-100.00,North,350,0.0,0.0,78,-99.99,,,-99.99,,2013-11-02 21:52:00,
2013-11-02 17:24:00,40.0,34.0,-100.00,North,350,0.0,0.0,78,-99.99,,,-99.99,,2013-11-02 22:24:00,
2013-11-02 17:34:00,40.0,34.0,-100.00,North,350,0.0,0.0,78,-99.99,,,-99.99,,2013-11-02 22:34:00,
2013-11-02 17:44:00,40.0,34.0,-100.00,North,350,0.0,0.0,78,-99.99,,,-99.99,,2013-11-02 22:44:00,
2013-11-02 17:52:00,38.0,32.0,-100.00,NW,310,0.0,0.0,78,-99.99,,,-99.99,,2013-11-02 22:52:00,
2013-11-02 18:22:00,38.0,32.0,-100.00,NW,310,0.0,0.0,78,-99.99,,,-99.99,,2013-11-02 23:22:00,
2013-11-02 18:33:00,38.0,32.0,-100.00,NW,310,0.0,0.0,78,-99.99,,,-99.99,,2013-11-02 23:33:00,
2013-11-02 18:42:00,38.0,32.0,-100.00,NW,310,0.0,0.0,78,-99.99,,,-99.99,,2013-11-02 23:42:00,
2013-11-02 19:22:00,35.0,31.0,-100.00,NE,45,0.0,0.0,87,-99.99,,,-99.99,,2013-11-03 00:22:00,
2013-11-02 19:33:00,35.0,31.0,-100.00,NE,45,0.0,0.0,87,-99.99,,,-99.99,,2013-11-03 00:33:00,
2013-11-02 19:42:00,35.0,31.0,-100.00,NE,45,0.0,0.0,87,-99.99,,,-99.99,,2013-11-03 00:42:00,
2013-11-02 19:52:00,35.0,31.0,-100.00,NE,45,0.0,0.0,87,-99.99,,,-99.99,,2013-11-03 00:52:00,
2013-11-02 20:22:00,32.0,29.0,-100.00,NE,45,0.0,0.0,91,-99.99,,,-99.99,,2013-11-03 01:22:00,
2013-11-02 20:32:00,32.0,29.0,-100.00,NE,45,0.0,0.0,91,-99.99,,,-99.99,,2013-11-03 01:32:00,
2013-11-02 20:42:00,32.0,29.0,-100.00,NE,45,0.0,0.0,91,-99.99,,,-99.99,,2013-11-03 01:42:00,
2013-11-02 20:52:00,29.0,28.0,-100.00,North,0,0.0,0.0,94,-99.99,,,-99.99,,2013-11-03 01:52:00,
2013-11-02 21:22:00,29.0,28.0,-100.00,North,0,0.0,0.0,94,-99.99,,,-99.99,,2013-11-03 02:22:00,
2013-11-02 21:32:00,29.0,28.0,-100.00,North,0,0.0,0.0,94,-99.99,,,-99.99,,2013-11-03 02:32:00,
2013-11-02 21:43:00,29.0,28.0,-100.00,North,0,0.0,0.0,94,-99.99,,,-99.99,,2013-11-03 02:43:00,
2013-11-02 21:53:00,29.0,28.0,-100.00,North,350,0.0,0.0,96,-99.99,,,-99.99,,2013-11-03 02:53:00,
2013-11-02 22:22:00,29.0,28.0,-100.00,North,350,0.0,0.0,96,-99.99,,,-99.99,,2013-11-03 03:22:00,
2013-11-02 22:33:00,29.0,28.0,-100.00,North,350,0.0,0.0,96,-99.99,,,-99.99,,2013-11-03 03:33:00,
2013-11-02 22:45:00,29.0,28.0,-100.00,North,350,0.0,0.0,96,-99.99,,,-99.99,,2013-11-03 03:45:00,
2013-11-02 23:23:00,29.0,28.0,-100.00,NE,35,0.0,0.0,96,-99.99,,,-99.99,,2013-11-03 04:23:00,
2013-11-02 23:34:00,29.0,28.0,-100.00,NE,35,0.0,0.0,96,-99.99,,,-99.99,,2013-11-03 04:34:00,
2013-11-02 23:44:00,29.0,28.0,-100.00,NE,35,0.0,0.0,96,-99.99,,,-99.99,,2013-11-03 04:44:00,
2013-11-02 23:52:00,29.0,28.0,-100.00,NE,35,0.0,0.0,96,-99.99,,,-99.99,,2013-11-03 04:52:00,
2013-11-02 23:53:00,27.0,27.0,-100.00,East,100,0.0,0.0,97,-99.99,,,-99.99,,2013-11-03 04:53:00,